Location: McFarlands Corners
(41.4117°N, 81.3382°W)
Time: 06:56:22
(UTC+00:00)

Transit 4A - Pass Details

Date: 16 February 2026
Orbit: 864 x 977 km, 66.8° (Epoch: 9 March)

Event Time Altitude Azimuth Distance (km) Brightness Sun altitude
Rises 19:34:07 0° 319° (NW) 3,623 10.8 30.3°
Reaches altitude 10° 19:36:59 10° 308° (NW) 2,690 10.4 30.0°
Maximum altitude 19:42:11 28° 252° (WSW) 1,729 10.5 29.5°
Drops below altitude 10° 19:47:26 10° 196° (SSW) 2,713 11.7 28.9°
Sets 19:50:21 0° 185° (S) 3,659 11.9 28.6°
